Weather History for Novato, CA

Change the Weather History Date:

Friday, November 2, 2012

  Actual Average (KAPC) Record (KAPC)
Temperature  
Mean Temperature 54 °F 55 °F  
Max Temperature 68 °F 69 °F 77 °F (2011)
Min Temperature 41 °F 41 °F 30 °F (2002)
Degree Days  
Heating Degree Days 10    
Month to date heating degree days  
Since 1 July heating degree days  
Cooling Degree Days 0    
Month to date cooling degree days  
Year to date cooling degree days  
Growing Degree Days 4 (Base 50)    
Moisture  
Dew Point 49 °F    
Average Humidity 90    
Maximum Humidity 100    
Minimum Humidity 56    
Precipitation  
Precipitation 0.00 in - 0.67 in (1948)
Month to date precipitation  
Year to date precipitation  
Since 1 July precipitation  
Sea Level Pressure  
Sea Level Pressure 30.07 in    
Wind  
Wind Speed 2 mph (North)    
Max Wind Speed 8 mph    
Max Gust Speed -    
Visibility 7 miles    
Events Fog    
T = Trace of Precipitation, MM = Missing Value Source: NWS Daily Summary

Daily Weather History Graph

Daily Weather History Graph

Search for Another Location

Airport:

Trip Planner

Search our weather history database for the weather conditions in past years. The results will help you decide how hot, cold, wet, or windy it might be!

Date:

Astronomy

Nov. 02, 2012 Rise Set
Actual Time 7:37 AM PDT 6:09 PM PDT
Civil Twilight 7:10 AM PDT 6:36 PM PDT
Nautical Twilight 6:39 AM PDT 7:07 PM PDT
Astronomical Twilight 6:08 AM PDT 7:38 PM PDT
Moon 9:03 PM PDT (11/2) 11:00 AM PDT (11/2)
Length of Visible Light 11h 26m
Length of Day
10h 31m
Waning Gibbous, 86% of the Moon is Illuminated
Nov 2
Waning Gibbous
Nov 6
Last Quarter
Nov 13
New
Nov 20
First Quarter
Nov 28
Full

Hourly Weather History & Observations

Time (PDT) Temp. Windchill Dew Point Humidity Pressure Visibility Wind Dir Wind Speed Gust Speed Precip Events Conditions
12:15 AM 50.0 °F - 50.0 °F 100% 30.07 in 10.0 mi North 4.6 mph - N/A   Clear
12:35 AM 48.2 °F - 48.2 °F 100% 30.07 in 10.0 mi East 3.5 mph - N/A   Clear
12:55 AM 48.2 °F - 48.2 °F 100% 30.07 in 10.0 mi Calm Calm - N/A   Clear
1:15 AM 48.2 °F - 48.2 °F 100% 30.07 in 10.0 mi Calm Calm - N/A   Clear
1:35 AM 48.2 °F - 48.2 °F 100% 30.07 in 10.0 mi NE 3.5 mph - N/A   Clear
1:55 AM 46.4 °F - 46.4 °F 100% 30.07 in 10.0 mi Calm Calm - N/A   Clear
2:15 AM 46.4 °F - 46.4 °F 100% 30.07 in 9.0 mi Calm Calm - N/A   Clear
2:35 AM 44.6 °F - 44.6 °F 100% 30.07 in 10.0 mi Calm Calm - N/A   Clear
2:55 AM 46.4 °F - 46.4 °F 100% 30.08 in 10.0 mi Calm Calm - N/A   Clear
3:15 AM 44.6 °F - 44.6 °F 100% 30.07 in 8.0 mi Calm Calm - N/A   Clear
3:35 AM 44.6 °F 43.1 °F 44.6 °F 100% 30.07 in 10.0 mi NNE 3.5 mph - N/A   Clear
3:55 AM 44.6 °F - 44.6 °F 100% 30.06 in 10.0 mi Calm Calm - N/A   Clear
4:15 AM 44.6 °F 42.2 °F 44.6 °F 100% 30.06 in 8.0 mi North 4.6 mph - N/A   Clear
4:35 AM 44.6 °F - 44.6 °F 100% 30.07 in 5.0 mi Calm Calm - N/A   Mostly Cloudy
4:55 AM 44.6 °F - 44.6 °F 100% 30.07 in 0.2 mi Calm Calm - N/A Fog Fog
5:15 AM 44.6 °F - 44.6 °F 100% 30.07 in 0.2 mi Calm Calm - N/A Fog Fog
5:35 AM 44.6 °F - 44.6 °F 100% 30.07 in 0.2 mi Calm Calm - N/A Fog Fog
5:55 AM 44.6 °F - 44.6 °F 100% 30.07 in 0.2 mi Calm Calm - N/A Fog Fog
6:15 AM 44.6 °F 43.1 °F 44.6 °F 100% 30.07 in 0.2 mi West 3.5 mph - N/A Fog Fog
6:35 AM 44.6 °F 42.2 °F 44.6 °F 100% 30.07 in 0.2 mi SW 4.6 mph - N/A Fog Fog
6:55 AM 42.8 °F - 42.8 °F 100% 30.08 in 0.5 mi Calm Calm - N/A Fog Fog
7:15 AM 41.0 °F 39.0 °F 41.0 °F 100% 30.08 in 0.2 mi North 3.5 mph - N/A Fog Fog
7:35 AM 42.8 °F 40.1 °F 42.8 °F 100% 30.08 in 0.2 mi North 4.6 mph - N/A Fog Fog
7:55 AM 44.6 °F - 44.6 °F 100% 30.09 in 0.2 mi Calm Calm - N/A Fog Fog
8:15 AM 42.8 °F - 42.8 °F 100% 30.09 in 0.2 mi Calm Calm - N/A Fog Fog
8:35 AM 42.8 °F - 42.8 °F 100% 30.09 in 0.2 mi Calm Calm - N/A Fog Fog
8:55 AM 44.6 °F - 44.6 °F 100% 30.10 in 0.2 mi Calm Calm - N/A Fog Fog
9:15 AM 46.4 °F - 46.4 °F 100% 30.11 in 0.2 mi Calm Calm - N/A Fog Fog
9:35 AM 46.4 °F - 46.4 °F 100% 30.11 in 0.2 mi Calm Calm - N/A Fog Fog
9:55 AM 48.2 °F - 48.2 °F 100% 30.10 in 0.5 mi Calm Calm - N/A Fog Fog
10:15 AM 48.2 °F - 48.2 °F 100% 30.10 in 1.2 mi NE 4.6 mph - N/A   Overcast
10:35 AM 50.0 °F - 50.0 °F 100% 30.10 in 0.8 mi NE 5.8 mph - N/A   Overcast
10:55 AM 51.8 °F - 51.8 °F 100% 30.10 in 5.0 mi North 4.6 mph - N/A   Overcast
11:15 AM 51.8 °F - 51.8 °F 100% 30.10 in 10.0 mi NNE 3.5 mph - N/A   Scattered Clouds
11:35 AM 53.6 °F - 53.6 °F 100% 30.09 in 10.0 mi Calm Calm - N/A   Clear
11:55 AM 59.0 °F - 59.0 °F 100% 30.09 in 10.0 mi North 3.5 mph - N/A   Clear
12:15 PM 60.8 °F - 57.2 °F 88% 30.09 in 10.0 mi NNE 4.6 mph - N/A   Clear
12:35 PM 62.6 °F - 55.4 °F 77% 30.08 in 10.0 mi North 5.8 mph - N/A   Clear
12:55 PM 62.6 °F - 53.6 °F 72% 30.07 in 10.0 mi Calm Calm - N/A   Clear
1:15 PM 64.4 °F - 55.4 °F 73% 30.06 in 10.0 mi Calm Calm - N/A   Clear
1:35 PM 64.4 °F - 53.6 °F 68% 30.06 in 10.0 mi East 3.5 mph - N/A   Clear
1:55 PM 66.2 °F - 53.6 °F 64% 30.06 in 10.0 mi SE 3.5 mph - N/A   Clear
2:15 PM 66.2 °F - 53.6 °F 64% 30.05 in 10.0 mi Calm Calm - N/A   Clear
2:35 PM 66.2 °F - 53.6 °F 64% 30.05 in 9.0 mi South 5.8 mph - N/A   Clear
2:55 PM 68.0 °F - 53.6 °F 60% 30.05 in 9.0 mi West 3.5 mph - N/A   Clear
3:15 PM 66.2 °F - 53.6 °F 64% 30.04 in 10.0 mi NW 6.9 mph - N/A   Clear
3:35 PM 66.2 °F - 50.0 °F 56% 30.05 in 10.0 mi NW 8.1 mph - N/A   Clear
3:55 PM 66.2 °F - 50.0 °F 56% 30.04 in 10.0 mi NW 6.9 mph - N/A   Partly Cloudy
4:15 PM 64.4 °F - 48.2 °F 56% 30.04 in 10.0 mi NNW 6.9 mph - N/A   Clear
4:35 PM 64.4 °F - 48.2 °F 56% 30.04 in 10.0 mi NNW 6.9 mph - N/A   Clear
4:55 PM 64.4 °F - 48.2 °F 56% 30.04 in 10.0 mi North 4.6 mph - N/A   Clear
5:15 PM 62.6 °F - 50.0 °F 63% 30.03 in 10.0 mi NNE 3.5 mph - N/A   Clear
5:35 PM 60.8 °F - 51.8 °F 72% 30.04 in 10.0 mi NNE 8.1 mph - N/A   Clear
5:55 PM 59.0 °F - 50.0 °F 72% 30.04 in 10.0 mi North 5.8 mph - N/A   Clear
6:15 PM 55.4 °F - 50.0 °F 82% 30.04 in 10.0 mi North 4.6 mph - N/A   Clear
6:35 PM 53.6 °F - 50.0 °F 88% 30.05 in 10.0 mi North 3.5 mph - N/A   Clear
6:55 PM 53.6 °F - 50.0 °F 88% 30.05 in 10.0 mi Calm Calm - N/A   Clear
7:15 PM 53.6 °F - 50.0 °F 88% 30.06 in 10.0 mi Calm Calm - N/A   Clear
7:35 PM 53.6 °F - 50.0 °F 88% 30.06 in 10.0 mi Calm Calm - N/A   Clear
7:55 PM 51.8 °F - 50.0 °F 94% 30.06 in 10.0 mi Calm Calm - N/A   Clear
8:15 PM 51.8 °F - 50.0 °F 94% 30.07 in 10.0 mi Calm Calm - N/A   Clear
8:35 PM 51.8 °F - 50.0 °F 94% 30.07 in 10.0 mi Calm Calm - N/A   Clear
8:55 PM 51.8 °F - 50.0 °F 94% 30.06 in 10.0 mi Calm Calm - N/A   Clear
9:15 PM 51.8 °F - 50.0 °F 94% 30.07 in 10.0 mi Calm Calm - N/A   Clear
9:35 PM 53.6 °F - 50.0 °F 88% 30.07 in 10.0 mi Calm Calm - N/A   Clear
9:55 PM 51.8 °F - 50.0 °F 94% 30.07 in 10.0 mi Calm Calm - N/A   Clear
10:15 PM 50.0 °F - 50.0 °F 100% 30.08 in 10.0 mi Calm Calm - N/A   Clear
10:35 PM 51.8 °F - 51.8 °F 100% 30.08 in 10.0 mi Calm Calm - N/A   Clear
10:55 PM 48.2 °F - 48.2 °F 100% 30.08 in 10.0 mi North 4.6 mph - N/A   Clear
11:15 PM 50.0 °F - 50.0 °F 100% 30.08 in 10.0 mi Calm Calm - N/A   Clear
11:35 PM 50.0 °F - 50.0 °F 100% 30.08 in 10.0 mi Calm Calm - N/A   Clear
11:55 PM 50.0 °F - 50.0 °F 100% 30.08 in 10.0 mi Calm Calm - N/A   Clear